sat.trackr.live / text

‹ back to catalog

HAWK-7A

NORAD 56191 · 2023-054P

PAYLOAD ACTIVE UNKNOWN

§ Identity

Operator
Country
US
Launch date
2023-04-15
Launch site
AFWTR
Launch vehicle
Mass (kg)
RCS (m²)

Purposes: tech_demo

External: N2YO · Heavens-Above · Gunter

§ Orbital elements

Epoch: 2026-09-19T14:54:15.259680Z

Period
94.23 min
Inclination
97.2540°
Eccentricity
0.0004630
Mean motion
15.28209986 rev/d
Perigee alt
478.0 km
Apogee alt
484.3 km
Semi-major
6,859.3 km
B*
1.3764e-4
RAAN
147.5354°
Arg perigee
71.8893°
Mean anomaly
288.2850°
Rev number
19,144

§ Raw data

HAWK-7A1 56191U 23054P   26262.62100995  .00003712  00000+0  13764-3 0  99922 56191  97.2540 147.5354 0004630  71.8893 288.2850 15.28209986191441

JSON: /api/v1/satellites/56191 · /tle

For live sub-satellite position, see the globe view (requires WebGL).

§ Visibility from observer

Set your observer location to see the next 7 days of passes ≥ 10°. The values pass through the URL so the page stays shareable.

No JS? Fill the form by hand. The geolocation button needs JavaScript.